Regional Weather Roundup
Issued by NWS Newport/Morehead, NC

Home | Current Version | Previous Version | Text Only | Print | Product List | Glossary On
Versions: 1 2 3 4 5 6 7 8 9 10 11 12 13 14 15 16 17 18 19 20 21 22 23 24 25 26 27 28 29 30 31 32 33 34 35 36 37 38 39 40 41 42 43 44 45 46 47 48 49 50
000
ASUS42 KMHX 251825
RWRMHX
WEATHER ROUNDUP FOR EASTERN NORTH CAROLINA
NATIONAL WEATHER SERVICE NEWPORT/MOREHEAD CITY NC
200 PM EDT MON JUL 25 2016

NOTE: "FAIR" INDICATES FEW OR NO CLOUDS BELOW 12,000 FEET
WITH NO SIGNIFICANT WEATHER AND/OR OBSTRUCTIONS TO VISIBILITY

NCZ015>017-031-032-045>047-102-103-251900-
NORTH COAST

CITY           SKY/WX    TMP DP  RH WIND       PRES   REMARKS
EDENTON        SUNNY     94  72  48 SW7       30.01F HX 102
ELIZABETH CITY MOSUNNY   93  76  57 S13       30.00F HX 105
KITTY HAWK     CLEAR     98  71  41 S6        30.00F HX 106
MANTEO           N/A     92  73  53 SW7       30.01F HX 100

$$

NCZ045>047-081-094-103-104-251900-
CENTRAL COAST

CITY           SKY/WX    TMP DP  RH WIND       PRES   REMARKS
FRISCO         MOSUNNY   87  77  72 SW9       30.05F

$$

NCZ095-097-098-100-101-251900-
SOUTHERN COAST

CITY           SKY/WX    TMP DP  RH WIND       PRES   REMARKS
BEAUFORT       SUNNY     88  78  72 SW18      30.05F HX 101
CEDAR ISLAND   NOT AVBL
JACKSONVILLE   MOSUNNY   89  76  65 S15G22    30.03F HX 100
PINEY ISLAND   NOT AVBL
WILMINGTON     MOSUNNY   92  74  55 SW10      30.04F HX 101


$$

NCZ011>013-027>030-043-044-078>080-089-090>093-098-251900-
COASTAL PLAIN

CITY           SKY/WX    TMP DP  RH WIND       PRES   REMARKS
AHOSKIE        SUNNY     91  75  59 S3        29.99F HX 102
CLINTON        SUNNY     93  76  57 SW6       30.03S HX 104
ELIZABETHTOWN  SUNNY     92  73  53 SW8       30.04S HX 101
GOLDSBORO      MOSUNNY   95  76  53 SW10      30.00F HX 108
GREENVILLE     MOSUNNY   93  77  59 SW6       30.03F HX 107
HAVELOCK       PTSUNNY   90  77  65 S15       30.04F HX 103
KENANSVILLE    NOT AVBL
KINSTON        MOSUNNY   95  73  49 S8G16     30.02F HX 105
NEW BERN       MOSUNNY   91  73  55 S9        30.04F
RICHLANDS      MOSUNNY   94  75  54 S9        30.03F HX 105
ROCKY MOUNT    SUNNY     94  77  57 S12       30.01F HX 108
WASHINGTON     MOSUNNY   91  75  59 SW10      30.02F HX 102
WHITEVILLE     MOSUNNY   92  73  54 S9        30.04F HX 100

$$

AMZ130-135-150-152-154-156-158-170-250-252-270-ANZ085-086-088-633-658-670-251900-
MARINE OBSERVATIONS

STATION/POSITION TIME  TEMP    WIND        PRES    WAVE   SWELL
                       AIR SEA DIR/SP/G            HT/PER HT/PER
                 (UTC) (F)     (DEG/KT/KT) (MB)    (FT/S) (FT/S)
CHESAPEAKE LIGHT NOT AVBL
64 E VA BEACH    1750   82 82  210/ 14/ 16 1015.9    3/ 5   2/ 8
DUCK             1800   89 65  200/  9/ 13 1015.3
2 E DUCK         1711      74                N/A     1/ 9
OREGON INLET     1700   85 84  180/ 12/ 15 1017.3
13E OREGON INLT  1800      82                N/A     2/ 5   2/ 8
HATTERAS CG      1800   87 83  200/  9/ 14 1017.0
DIAMOND BUOY     1750   84 86  220/ 12/ 14 1017.7    2/ 5   2/ 8
CAPE LOOKOUT     1800   87     200/ 10/ 13 1017.6
BEAUFORT LAB     1800   86 83  210/ 12/ 17 1016.9
30 SE NEW RVR IN 1808   85 85  220/ 12/ 16 1018.1
30 SE NEW RVR IN 1725      85                N/A     3/ 4
27 SE WRIGHTSVLE 1808   85 85  210/ 12/ 14 1018.2
5 SE WRIGHTSVLE  1808   85 84  210/ 14/ 17 1018.6
225 S CAPE HAT   1750   83 85  170/ 10/ 12 1020.1    2/ 8   2/ 8
41 SE CHARLESTON 1750   85 87  210/  6/  8 1018.4    2/ 9   2/ 9

$$




USA.gov is the U.S. government's official web portal to all federal, state and local government web resources and services.